• Join FlightAware (Why Join?)
  • Login
  • US Flag 
09:39AM EDT


 

Airport Tracker/Info


-or-


 

Live Flight TrackerFlight Track Log ✈ ASQ4345 ✈ 10-Apr-2013 ✈ KIAH - KCRP

Flight Track Log - Related Links

Times and Time Zones

All times are in EDT time to prevent confusion due to time zone crossing. See the ASQ4345 flight status page for this flight to view local times or setup timezone preferences in your user account.

Time Position Orientation Groundspeed Altitude Reporting Facility
EDT Latitude Longitude Course Direction KTS MPH feet Rate Location/Type
10:14AM 29.9639 -95.3433 209° Southwest 175 201 900  Level Houston Center
10:15AM 29.9303 -95.2992 131° Southeast 199 229 3,100 1,980 Climbing Houston Center
10:16AM 29.9139 -95.2742 127° Southeast 199 229 4,100 900 Climbing Houston Center
10:16AM 29.8789 -95.2211 127° Southeast 232 267 4,300 240 Climbing Houston Center
10:17AM 29.8744 -95.2139 125° Southeast 224 258 4,400 840 Climbing Houston Center
10:17AM 29.8475 -95.1742 128° Southeast 246 283 5,000 960 Climbing Houston Center
10:18AM 29.8331 -95.1506 125° Southeast 240 276 5,400 1,620 Climbing Houston Center
10:18AM 29.8083 -95.1164 130° Southeast 244 281 6,500 2,460 Climbing Houston Center
10:19AM 29.6103 -95.5436 209° Southwest  Level FlightAware Approximate
10:19AM 29.7825 -95.0717 124° Southeast 251 289 8,000  Level Houston Center
10:20AM 29.7169 -95.0564 169° South 248 285 9,900 1,320 Climbing Houston Center
10:21AM 29.6397 -95.0589 182° South 268 308 10,800 720 Climbing Houston Center
10:22AM 29.5547 -95.0900 198° South 321 369 11,500 600 Climbing Houston Center
10:23AM 29.4906 -95.1761 229° Southwest 340 391 12,100 960 Climbing Houston Center
10:24AM 29.4294 -95.2639 231° Southwest 346 398 13,600 1,620 Climbing Houston Center
10:25AM 29.3692 -95.3483 231° Southwest 342 394 15,500 1,680 Climbing Houston Center
10:26AM 29.3119 -95.4308 232° Southwest 334 384 17,100 1,620 Climbing Houston Center
10:27AM 29.2522 -95.5142 231° Southwest 335 386 18,900 1,620 Climbing Houston Center
10:28AM 29.1792 -95.6183 231° Southwest 347 399 20,500 1,320 Climbing Houston Center
10:29AM 29.1158 -95.7078 231° Southwest 357 411 21,700 720 Climbing Houston Center
10:30AM 29.0497 -95.8014 231° Southwest 373 429 22,000 120 Climbing Houston Center
10:31AM 28.9789 -95.9019 231° Southwest 396 456 22,000  Level Houston Center
10:32AM 28.9047 -96.0025 230° Southwest 415 478 22,000  Level Houston Center
10:33AM 28.8314 -96.1047 231° Southwest 416 479 22,000  Level Houston Center
10:34AM 28.7447 -96.2247 231° Southwest 410 472 22,000  Level Houston Center
10:35AM 28.6719 -96.3250 230° Southwest 410 472 22,000 -480 Level Houston Center
10:36AM 28.6000 -96.4244 231° Southwest 407 468 21,100 -1,200 Descending Houston Center
10:37AM 28.5281 -96.5228 230° Southwest 404 465 19,600 -1,680 Descending Houston Center
10:38AM 28.4592 -96.6211 231° Southwest 399 459 17,600 -1,920 Descending Houston Center
10:39AM 28.3919 -96.7122 230° Southwest 383 441 15,700 -2,040 Descending Houston Center
10:41AM 28.3186 -96.8233 233° Southwest 368 423 13,500 -2,040 Descending Houston Center
10:42AM 28.2661 -96.9283 240° Southwest 340 391 11,400 -1,620 Descending Houston Center
10:43AM 28.2228 -97.0106 239° Southwest 290 334 10,100 -1,440 Descending Houston Center
10:44AM 28.1917 -97.0689 239° Southwest 266 306 8,600 -1,500 Descending Houston Center
10:45AM 28.1542 -97.1364 238° Southwest 257 296 7,200 -1,380 Descending Houston Center
10:46AM 28.1192 -97.2011 238° Southwest 246 283 5,800 -1,380 Descending Houston Center
10:46AM 28.1061 -97.2314 244° Southwest 238 274 5,400 -720 Descending Houston Center
10:47AM 28.0772 -97.2947 243° Southwest 238 274 5,000 -240 Descending Houston Center
10:48AM 28.0556 -97.3453 244° Southwest 233 268 5,000  Level Houston Center
10:49AM 28.0222 -97.4256 245° Southwest 231 266 5,000  Level Houston Center
10:50AM 27.9961 -97.4767 240° Southwest 233 268 5,000 -1,020 Level Houston Center
10:51AM 27.9675 -97.5422 244° Southwest 221 254 3,200 -1,440 Descending Houston Center
10:52AM 27.9417 -97.5956 241° Southwest 205 236 2,100 -600 Descending Houston Center
10:53AM 27.9006 -97.6247 212° Southwest 177 204 2,000 -60 Descending Houston Center
10:54AM 27.8536 -97.5981 153° Southeast 181 208 2,000  Level Houston Center